www.pogodaiklimat.ru

Погода и климат >> Архив погоды >> Монголия >> Эрдэнэмандал


ПОГОДА в Эрдэнэмандале

  • Прогноз погоды в Эрдэнэмандале
  • Монитор погоды в Эрдэнэмандале

АРХИВ ПОГОДЫ в Эрдэнэмандале

Время (UTC), дата Ветер
(напр.,м/с)
 
Видим.   Явления Облачность Т
(С)
Тd
(С)
f
(%)
Тe
(С)
Тes
(С)
Комфортность P
(гПа)
Po
(гПа)
Тmin
(С)
Tmax
(С)
R
(мм)
R24
(мм)
S
(см)
12 18.06 В 4 50 км 8/3 1000 м
[Cu hum Ac lent Cs]
+22.9 +8.4 39 +24 +24 комфорт 1003.6 846.1 +24.8
15 18.06 Ю 1 50 км 8/4 600 м
[Sc Ci fib]
+16.8 +9.8 63 +18 +18 1008.4 846.7
18 18.06 Ю 3 50 км 4/0
[Ac lent Ci]
+13.8 +10.2 79 +13 +13 1010.3 847.2
21 18.06 штиль 0 50 км 3/0
[Ac lent]
+11.0 +7.3 78 +10 +10 1012.1 847.0
00 19.06 Ю 2 50 км 6/1 1000 м
[Cu hum Ci fib]
+14.6 +9.2 70 +14 +17 1009.6 847.3 +10.8
03 19.06 Ю 2 50 км 1/0
[Ac lent]
+21.5 +10.7 50 +23 +36 комфорт 1005.5 846.7
06 19.06 Ю 4 50 км 8/3 1000 м
[Cu hum Ac lent Ci]
+26.2 +13.0 44 +28 +33 жарко 1000.9 845.4
09 19.06 штиль 0 50 км 9/3 1000 м
[Cu med, cong Ac lent]
+25.2 +10.0 38 +26 +29 жарко 1000.3 844.2
12 19.06 СЗ 10 50 км 9/9 600 м
[Sc]
+20.5 +6.7 41 +21 +21 комфорт 1007.2 845.4 +26.7
15 19.06 ЮЗ 4 50 км {гроза} 10/10 600 м
[Cu Sc]
+18.8 +5.8 43 +19 +19 1004.3 844.6
18 19.06 ЮЗ 4 50 км {гроза} 6/0
[Ac lent Ci ing]
+13.9 +7.6 66 +13 +13 1012.7 846.6
21 19.06 З 2 50 км 8/0
[Ac lent Ci fib]
+10.8 +7.6 81 +10 +10 1014.7 846.6
00 20.06 ЮЗ 5 50 км 8/3 1000 м
[Cu hum Cs]
+16.1 +8.7 61 +15 +16 1012.1 847.2 +10.2
03 20.06 Ю 1 50 км 4/3 1000 м
[Cu hum Ac lent]
+22.9 +8.3 39 +24 +35 комфорт 1007.8 847.1
06 20.06 ЮВ 2 50 км 8/5 600 м
[Cb calv Ac lent Ci fib]
+27.4 +8.3 30 +27 +33 жарко 1003.9 846.0
09 20.06 Ю 4 50 км 9/6 600 м
[Cb calv Ci ing]
+28.4 +7.0 26 +28 +30 жарко 1002.1 845.0
12 20.06 Ю 4 50 км 6/3 600 м
[Cb calv Ci]
+25.7 +8.1 33 +26 +26 жарко 1004.6 845.8 +28.9
15 20.06 ЮВ 11 50 км {метель} 6/3 600 м
[Sc Ac cast Ci]
+17.6 +10.3 62 +16 +16 1011.7 847.7
18 20.06 З 2 50 км {метель} 1/0
[Ci]
+15.3 +8.8 65 +15 +15 1013.9 848.3
21 20.06 ЮЗ 2 50 км 3/0
[Ac lent]
+12.2 +8.7 79 +11 +11 1014.9 847.5
00 21.06 ЮЗ 2 50 км 6/3 1000 м
[Cu hum Ci]
+16.8 +9.9 64 +17 +20 1012.6 848.0 +11.2
03 21.06 СВ 1 50 км 9/3 1000 м
[Cu med, cong Cs]
+23.4 +9.8 42 +25 +35 комфорт 1007.6 847.2
06 21.06 ЮЗ 3 50 км 9/8 600 м
[Cb calv Ac As Cs]
+25.9 +10.9 39 +27 +29 жарко 1004.6 845.9
09 21.06 З 2
{16}
50 км {гроза, ливн. осадки} 9/8 600 м
[Sc Ac As]
+21.6 +11.2 52 +24 +25 комфорт 1007.6 846.3
12 21.06 ЮЗ 7 50 км {гроза, ливн. осадки} 9/8 600 м
[Sc Ac As]
+20.4 +11.3 56 +22 +22 комфорт 1008.8 846.7 +27.8 6
15 21.06 С 3 50 км 9/9 600 м
[Sc]
+16.7 +12.6 77 +16 +16 1013.4 848.6
18 21.06 Ю 2 50 км 9/9 600 м
[Sc]
+14.7 +10.8 77 +14 +14 1013.9 848.0
21 21.06 Ю 3 50 км 9/6 600 м
[Sc Ac und]
+12.4 +10.7 89 +11 +11 1015.0 847.7
00 22.06 Ю 2 50 км 9/9 600 м
[Sc]
+13.9 +11.0 83 +13 +14 1014.0 847.7 +12.3
03 22.06 СВ 1 50 км {дождь} 10/10 600 м
[Sc]
+18.1 +12.5 70 +19 +19 1011.3 847.6
06 22.06 СВ 4 50 км {дождь} 8/6 600 м
[Sc Ac As]
+23.4 +13.2 53 +27 +30 душно 1005.3 845.2
09 22.06 ЮЗ 8 50 км 9/9 600 м
[Sc]
+24.2 +10.0 41 +25 +25 комфорт 1003.4 844.0
12 22.06 С 9 20 км осадки на расстоянии {гроза} 10/10 600 м
[Sc]
+18.7 +9.6 55 +18 +18 1008.4 845.5 +27.4 0.0
15 22.06 СВ 1 50 км 9/8 600 м
[Sc Ac lent]
+16.1 +11.9 76 +17 +17 1006.7 845.3
18 22.06 50 км н/о +15.7 +10.6 72 +15 +15 1006.7 845.2
21 22.06 СВ 1 50 км 8/5 600 м
[Sc Ac lent Ci fib]
+12.7 +9.8 83 +13 +13 1011.4 844.9
00 23.06 ЮВ 1 50 км 3/1 1000 м
[Cu hum Ci]
+16.8 +11.1 69 +18 +22 1009.5 845.4 +11.1
03 23.06 ЮВ 2 50 км 4/3 600 м
[Cb calv Ci]
+23.8 +9.5 40 +25 +35 комфорт 1004.5 844.8
06 23.06 С 4 50 км 9/6 600 м
[Cb calv Cc]
+24.9 +10.1 39 +26 +30 жарко 1003.0 844.0
09 23.06 СВ 5 50 км 6/4 600 м
[Cb calv Ci ing]
+25.6 +8.8 34 +26 +29 жарко 1001.4 843.0
12 23.06 СВ 5 50 км 9/8 600 м
[Sc Ci]
+23.1 +10.6 45 +25 +25 комфорт 1003.7 843.7 +26.8
15 23.06 В 1 50 км {гроза} 9/9 600 м
[Sc]
+19.4 +8.7 50 +21 +21 комфорт 1006.8 844.5
18 23.06 ЮЗ 5 н/о слаб. дождь {гроза} 10/10 600 м
[Sc]
+16.2 +10.1 67 +15 +15 1008.7 844.4
21 23.06 ЮЗ 4 50 км 9/6 600 м
[Sc Ac lent]
+14.0 +10.6 80 +13 +13 1009.2 843.7
00 24.06 ЮЗ 3 50 км 6/3 1000 м
[Cu hum Ac trans Ci]
+16.5 +10.9 69 +16 +18 1007.0 843.2 +13.0 0.0
03 24.06 З 4 50 км 8/6 600 м
[Cb calv Ci]
+22.9 +10.9 47 +25 +29 комфорт 1001.6 841.9
06 24.06 ЮВ 2 50 км в посл. час ливневой дождь {гроза} 9/9 600 м
[Cb calv]
+20.2 +12.9 63 +23 +25 комфорт 1001.4 840.4
09 24.06 ЮЗ 5
{14}
20 км гроза, ливневой дождь 10/10 600 м
[Cb cap]
+14.4 +13.2 92 +13 +13 1003.2 841.2
12 24.06 Ю 2 50 км {гроза, ливн. осадки} 9/6 600 м
[Cb calv Ac As Ci ing]
+15.6 +12.5 82 +15 +16 1003.9 840.1 +24.7 41
15 24.06 ЮЗ 2 н/о {дождь} 10/10 600 м
[Sc]
+14.7 +12.7 88 +14 +14 1004.7 840.3
18 24.06 З 3 50 км {дождь} 8/0
[Ac As Ci]
+14.1 +9.7 75 +13 +13 1004.9 840.2
21 24.06 Ю 1 50 км 3/0
[Ci fib]
+10.5 +7.7 83 +10 +10 1007.1 840.1
00 25.06 З 6 50 км 9/3 1000 м
[Cu hum Ac trans Ci]
+14.9 +7.0 59 +13 +14 1002.6 840.6 +9.5 0.8
03 25.06 СЗ 11 50 км 4/3 1000 м
[Cu med, cong Ci fib]
+16.8 +2.8 39 +15 +15 1003.5 840.4
06 25.06 С 7 50 км 4/3 1000 м
[Cu med, cong Ci]
+18.9 +1.9 32 +18 +22 1001.3 839.6
09 25.06 СЗ 7
{15}
50 км 9/6 600 м
[Sc Ac trans Ci]
+18.2 +2.1 34 +18 +18 1001.7 839.6

 

Местоположение метеостанции Эрдэнэмандал (Монголия): широта 48.53 долгота 101.38 высота над уровнем моря 1509 м.

В архиве по умолчанию представлена погода в Эрдэнэмандале за последнюю неделю. Архивные данные за месяц целиком и за предыдущие месяцы, начиная с января 2011 года, Вы можете получить, выбрав интересующий диапазон дат из раскрывающегося списка и нажав кнопку "Ввод!".


*Определитесь, кто Вы:
робот инопланетянин человек

Внимание! Время в таблицах - всемирное. Для получения местного времени необходимо прибавить поправку, которая равна 8 ч.

Смотрите также архив погоды в соседних городах и на ближайших метеорологических станциях:

Погода в Цэцэрлэге (Монголия) (120 км)
Погода ву Тариалане (Монголия) (124 км)
Погода в Хутаге (Монголия) (135 км)
Погода в Тариате (Монголия) (144 км)
Погода в Мурэне (Монголия) (151 км)
Погода в Булгане (Монголия) (162 км)
Погода в Хужирте (Монголия) (209 км)
Погода в Галууте (Монголия) (224 км)
Погода в Хатгале (Монголия) (229 км)
Погода в Тосонцэнгэле (Монголия) (235 км)

Пояснения к столбцам:

Ветер - указаны скорость ветра в м/с - средняя за 10 мин, порывы в срок и между сроками (в фигурных скобках) и направление, откуда дует ветер: С - северный, СВ - северо-восточный, В - восточный, ЮВ - юго-восточный, Ю - южный, ЮЗ - юго-западный, З - западный, СЗ - северо-западный.
Видимость - горизонтальная дальность видимости в метрах или километрах. При видимости от 1 до 10 км при отсутствии осадков обычно наблюдается дымка, при ухудшении видимости до 1 км и менее - туман. В сухую погоду видимость может ухудшаться дымом, пылью или мглою.
Явления - указаны атмосферные явления, наблюдавшиеся в срок или в последний час перед сроком; фигурными скобками обозначены явления, наблюдавшиеся между сроками (за 1-3 часа до срока); квадратными скобками обозначены град или гололедные отложения с указанием их диаметра в мм.
Облачность - указаны через наклонную черту общая и нижняя облачность в баллах и высота нижней границы облаков в метрах; квадратными скобками обозначены формы облаков: Ci - перистые, Cs - перисто-слоистые, Cc - перисто-кучевые, Ac - высококучевые, As - высокослоистые, Sc - слоисто-кучевые, Ns - слоисто-дождевые, Cu - кучевые, Cb - кучево-дождевые. Подробнее классификацию облаков см. в Атласе облаков (PDF).
T - Температура воздуха - температура, измеренная на высоте 2 м над землей.
Td - Температура точки росы - температура, при понижении до которой содержащийся в воздухе водяной пар достигнет насыщения.
f - Относительная влажность воздуха - влажноcть воздуха, измеренная на высоте 2 м над землей.
Te - Эффективная температура - температура, которую ощущает одетый по сезону человек в тени. Характеристика душности погоды. При расчете учитывается влияние влажности воздуха и скорости ветра на теплоощущения человека.
Tes - Эффективная температура на солнце - температура, которую ощущает человек, с поправкой на солнечный нагрев. Характеристика знойности погоды. Зависит от высоты солнца над горизонтом, облачности и скорости ветра. Ночью, в пасмурную погоду, а также при ветре 12 м/с и более поправка равна нулю.
P - Атмосферное давление - приведенное к уровню моря атмосферное давление.
Po - Атмосферное давление - измеренное на уровне метеостанции атмосферное давление.
Tmin - Минимальная температура - минимум температуры воздуха на высоте 2 м над землей.
Tmax - Максимальная температура - максимум температуры воздуха на высоте 2 м над землей.
R - Количество осадков - Количество выпавших осадков за период времени, мм. При наведении курсора мыши на число - период времени, за который выпало указанное количество осадков.
R24 - Количество осадков - Количество выпавших осадков за 24 часа, мм.
S - Снежный покров - Высота снежного покрова, см. При наведении курсора мыши на число - состояние снежного покрова и степень покрытия местности в баллах.